STARLINK-32722 (62450 NORAD) Tracking and Keplerian Element Data

This shows tracking and keplerian element data for the satellite.

Feedback or suggestion? Click here.




ElementValue
Catalog62450
NameSTARLINK-32722
Epoch Orbit643
Epoch Day35.16668981
Epoch Year2025
RAAN34.6389
Inclination53.1597
Eccentricity0.000119
Argument of Perigee76.9566
Mean Anonmoly36.526
Mean Motion15.42978768
Decay Rate-0.01543573
L11 62450U 24251U 25035.16668981 -.01543573 00000+0 -38285-1 0 9997
L22 62450 53.1597 34.6389 0001190 76.9566 36.5260 15.42978768 6434



Live tracking and technical data element details for STARLINK-32722 (NORAD 62450). STARLINK-32722 can be tracked NOW for your location showing map with azimuth and elevation plus other details from your city location.







IsCatalogInMostPopularTable: catalog: 62450, numindb: 16
Update: records affected: 1



GetName: 62450 STARLINK-32722

Hit Count: updated at: Mon, 19 May 2025 02:23:12 GMT